RH
8 11 11 11 10 10 13 12 21 12 11 12 11 11 17 19 20 22 22 23 22 24 23 22 24 24 26 30 35 35 38 46 42 41 44 43 40 37 35 36 52 52 50 59
7 11 9 8 9 9 12 12 12 10 12 12 11 12 11 18 19 19 20 22 23 23 22 23 24 24 26 31 36 42 42 49 46 40 42 39 38 35 42 41 46 52 53 57
6 7 6 8 10 10 11 11 11 14 12 9 10 11 13 12 17 17 16 17 20 22 22 21 23 24 25 30 35 42 50 53 54 52 43 44 46 50 44 43 44 47 54 54
5 4 5 7 9 10 12 9 9 13 13 14 9 13 12 14 14 16 16 16 16 21 21 19 19 21 23 27 32 38 47 53 54 58 50 63 51 48 50 41 44 43 57 55
5 4 5 7 8 9 11 8 11 12 12 11 10 10 9 9 9 11 14 14 14 16 18 20 18 21 21 24 28 35 46 56 60 60 64 52 61 41 37 45 68 58 65 58
4 3 4 6 6 6 7 8 11 11 10 14 9 9 9 9 9 8 9 10 11 14 16 18 18 18 20 21 25 30 47 62 63 62 62 67 64 60 69 45 51 52 73 85
4 5 5 5 6 6 6 9 13 15 13 12 6 9 9 7 6 8 13 12 13 13 15 18 20 19 21 21 23 28 48 63 64 61 60 64 65 62 60 54 49 61 65 77
5 5 5 4 6 7 8 8 11 19 10 7 7 10 7 5 5 11 15 15 16 16 16 17 20 21 22 23 24 28 44 57 57 59 64 67 65 50 49 55 52 47 48 48
5 6 4 4 4 5 6 7 4 5 4 7 6 7 5 10 12 13 15 17 18 18 18 17 17 18 20 24 27 30 36 52 55 52 64 65 65 63 51 63 60 46 51 43
4 7 4 4 4 4 5 4 6 6 12 13 8 9 12 18 15 13 14 16 18 19 20 17 17 18 20 20 23 28 34 46 48 44 51 53 58 66 62 60 63 60 54 53
4 4 6 5 6 5 6 6 6 4 5 8 9 11 10 16 14 14 14 13 13 15 17 17 17 18 18 21 22 23 29 36 42 40 47 53 53 54 58 53 61 60 59 66
4 4 7 6 4 4 4 6 5 7 11 6 6 13 9 13 13 13 13 14 13 14 13 15 16 18 20 23 24 26 30 30 35 37 49 48 53 59 54 57 56 56 64 67
4 5 7 7 5 5 6 5 4 4 4 11 9 15 12 15 19 18 16 16 19 18 17 17 19 23 23 24 37 36 34 34 31 38 36 43 53 55 58 59 58 59 70 70
15 4 11 10 8 6 7 6 5 4 6 7 6 14 15 19 23 25 24 22 22 22 22 21 20 24 28 30 43 48 44 40 43 40 38 51 58 63 62 63 64 64 77 79
4 6 9 8 7 7 7 7 6 6 6 10 9 13 17 21 24 26 27 28 29 31 32 35 33 34 34 36 42 47 51 58 56 59 60 60 66 68 70 69 72 73 81 80
4 11 9 9 6 7 9 7 6 5 6 6 12 17 20 24 25 27 28 28 30 30 29 34 35 39 40 39 44 50 56 64 65 66 65 68 74 75 76 79 79 79 78 83
6 7 10 12 9 10 11 10 7 6 6 6 11 22 22 24 25 26 27 27 27 28 29 32 30 27 32 38 43 51 58 57 61 63 60 64 66 75 79 77 80 84 88 82
7 8 10 19 16 18 13 12 10 11 10 9 15 17 18 22 23 23 23 25 26 27 29 31 27 22 26 32 37 46 51 59 74 78 83 75 80 75 81 80 81 85 83 84
7 9 12 14 15 13 12 12 10 11 12 10 11 15 15 16 16 23 21 21 24 25 25 25 21 22 29 39 44 52 52 57 79 82 84 86 79 84 84 83 82 85 81 79
8 8 12 16 17 28 22 8 8 10 16 12 12 14 13 14 17 29 20 20 23 23 25 25 23 23 24 30 35 50 56 58 64 65 75 74 76 78 82 83 86 84 77 75
15 16 16 16 19 13 14 11 10 18 23 14 12 13 15 17 23 24 21 22 22 23 22 21 24 27 38 43 46 50 50 52 53 55 61 75 77 81 85 84 87 84 80 79
23 21 18 18 21 31 15 13 18 26 25 20 17 16 18 19 21 22 22 23 22 23 21 20 25 29 29 36 45 50 52 52 56 68 73 73 81 81 87 88 90 93 94 88
23 19 21 24 37 27 19 21 22 18 21 26 26 22 20 18 19 21 22 22 20 20 21 20 24 29 29 35 45 50 55 57 60 62 80 81 86 90 94 94 97 99 99 99
21 21 21 21 18 23 20 21 22 21 21 21 20 20 20 20 20 20 20 20 20 20 22 22 26 30 36 41 47 57 60 62 68 70 85 93 97 97 98 97 96 98 95 86
22 23 21 24 21 22 22 23 22 22 21 20 19 19 19 19 20 20 21 23 23 24 25 28 32 35 40 45 48 54 61 67 70 68 88 98 99 98 98 98 97 96 92 91
17 21 20 24 25 28 29 27 24 24 23 22 22 21 20 20 22 22 23 24 27 30 35 36 38 39 37 45 50 60 66 70 75 86 98 99 99 99 99 99 100 100 100 100
Wind_Speed
19 17 19 21 18 19 11 8 17 11 6 11 7 6 16 11 13 14 16 16 17 17 17 18 17 16 16 16 14 14 13 11 10 9 9 8 8 6 6 5 7 1 4 1
19 21 20 18 20 16 8 16 8 7 7 8 9 11 8 15 12 13 14 17 16 18 18 19 20 18 17 16 16 15 14 12 11 9 8 8 7 5 4 4 4 4 1 5
21 18 18 21 19 16 14 18 13 6 3 13 9 16 3 13 14 12 13 14 18 18 19 21 22 20 19 18 17 16 15 13 12 11 8 6 3 4 4 5 5 6 5 4
13 16 15 20 18 12 19 16 15 3 7 11 4 8 9 17 11 16 14 15 16 19 19 19 21 21 20 19 17 16 16 14 13 12 9 8 8 8 6 6 5 5 6 5
15 17 15 18 13 17 18 17 8 6 13 15 15 9 4 7 5 8 13 15 15 18 20 19 21 21 20 19 18 17 16 15 14 14 13 10 10 8 5 2 8 2 5 5
17 9 10 14 18 18 18 17 9 13 14 14 14 13 2 2 4 5 6 8 10 16 20 21 18 20 18 18 17 17 16 15 15 13 15 12 9 10 3 5 5 4 3 1
16 11 13 14 15 16 17 15 11 13 15 11 15 3 8 12 6 9 4 1 4 13 19 20 19 17 18 18 18 16 15 14 15 15 15 15 12 10 8 4 6 5 5 4
13 15 15 13 17 10 13 17 13 11 12 12 6 3 3 7 3 8 4 4 6 10 15 18 20 17 17 17 17 16 16 15 16 16 15 12 13 10 10 10 4 7 7 7
11 14 19 12 16 17 16 16 21 21 18 7 6 11 6 10 9 7 9 9 10 9 11 15 19 18 18 17 17 17 15 15 16 17 13 13 12 13 10 7 8 8 7 6
5 10 9 10 11 12 15 8 14 6 6 4 6 2 10 13 5 6 11 11 11 10 9 12 14 17 16 18 18 18 17 17 17 17 15 13 14 12 9 9 9 9 8 6
12 14 11 11 12 14 9 10 8 11 4 6 7 10 16 10 6 8 6 6 10 13 10 10 9 9 13 15 18 18 17 18 17 17 16 14 13 13 12 11 10 9 8 8
16 9 10 14 14 17 16 12 13 7 12 6 11 10 13 12 9 7 9 8 8 2 5 5 7 8 9 13 15 17 16 17 16 16 13 15 13 11 14 12 12 11 10 11
14 9 11 12 11 10 11 9 14 16 8 7 10 11 14 12 11 10 9 9 6 4 5 6 5 5 7 10 10 11 14 15 16 14 16 15 14 13 12 12 11 11 10 11
8 19 13 10 12 16 17 7 10 15 8 9 7 18 12 11 12 10 9 9 9 7 5 6 2 7 6 7 9 9 10 13 12 14 16 14 15 14 13 12 12 12 11 10
13 15 6 9 7 2 4 9 9 13 12 8 8 16 14 11 11 11 10 8 9 8 10 8 9 4 4 7 8 10 10 10 11 12 12 13 13 11 11 11 11 11 10 10
14 7 3 4 1 5 9 12 6 12 4 5 14 17 16 15 10 10 10 10 10 9 8 8 7 5 4 6 9 10 11 11 9 9 10 10 12 13 13 13 13 12 13 9
15 7 7 8 5 3 12 10 11 9 8 13 8 19 16 12 11 9 7 8 7 7 6 5 6 7 6 1 7 10 11 8 7 4 5 7 6 9 10 12 13 14 13 13
13 12 8 10 9 10 12 6 7 3 9 8 9 8 14 11 11 8 6 7 6 6 5 5 6 7 8 8 2 6 7 8 7 9 8 3 7 9 11 13 13 14 12 13
8 11 6 4 9 5 11 10 8 8 8 9 7 9 7 4 5 12 9 7 6 5 4 6 7 8 6 4 4 4 5 6 7 7 8 21 13 10 13 14 14 13 12 13
11 11 8 8 12 7 22 14 6 5 7 4 7 8 4 3 8 11 8 7 6 4 4 6 7 7 7 7 4 5 5 6 8 10 14 12 10 12 14 14 15 14 14 14
10 9 10 10 10 5 12 9 5 6 4 6 7 6 5 3 8 7 5 5 5 3 4 7 6 6 1 7 8 8 7 6 5 10 12 13 14 13 11 13 13 15 14 14
7 9 11 12 10 6 11 4 8 7 4 6 2 2 1 3 3 3 3 3 3 6 8 9 6 6 7 2 5 7 8 7 6 4 6 11 12 11 12 16 14 11 10 9
9 10 10 7 5 2 5 4 7 7 2 1 1 4 4 5 4 4 1 2 5 7 7 9 8 7 9 5 5 9 8 8 10 8 6 9 13 13 13 16 16 12 11 9
5 4 7 10 6 5 6 2 1 1 4 2 5 5 3 4 2 4 5 5 6 7 7 9 9 10 10 8 5 7 8 8 8 10 5 6 8 10 12 11 12 12 13 14
7 4 4 6 7 2 3 1 3 0 3 4 2 4 5 5 6 6 5 5 6 7 7 9 10 10 10 9 7 8 7 7 9 9 7 6 6 9 10 10 9 10 10 8
5 6 7 6 10 7 7 4 3 5 4 5 7 7 8 9 9 8 7 7 6 7 9 10 11 12 13 11 8 5 6 7 7 5 4 5 6 8 7 8 5 11 4 4
Wind_Direction
203 220 226 228 229 274 289 299 282 121 86 305 332 312 150 176 195 195 188 185 192 196 188 180 188 180 172 165 170 181 188 178 183 194 197 209 216 212 237 251 86 276 259 163
212 228 230 234 250 236 242 273 246 171 121 266 306 301 168 162 201 212 202 184 198 191 196 193 189 188 188 180 176 181 191 182 199 197 211 218 220 216 220 221 154 230 105 221
231 214 230 246 235 246 237 249 268 337 89 278 255 262 136 162 183 210 210 208 187 199 197 191 193 197 190 187 187 186 189 185 199 225 201 206 260 270 207 237 218 204 220 220
233 253 244 223 244 230 241 232 272 281 267 279 31 301 254 148 198 189 197 206 203 190 196 196 193 195 194 191 188 190 190 191 196 207 209 204 213 222 219 204 184 158 195 222
221 225 229 254 226 237 245 261 298 265 254 262 242 253 268 208 234 133 183 190 208 192 195 201 192 187 197 190 189 188 189 193 201 197 229 193 224 232 237 215 105 217 172 216
249 181 254 237 236 237 247 240 251 262 254 262 268 237 199 102 37 16 135 176 206 195 192 189 200 181 193 186 187 186 185 188 195 199 204 233 210 244 282 187 134 178 157 176
221 206 228 251 232 224 233 231 237 229 231 240 250 116 322 332 344 50 336 132 184 189 188 187 194 189 181 185 188 184 180 184 190 201 205 209 217 220 236 196 195 175 186 208
198 204 215 191 244 197 223 238 237 228 253 264 50 189 359 43 296 84 123 116 139 173 180 187 183 198 180 188 187 192 179 187 191 196 204 201 206 211 215 195 187 193 203 201
190 241 168 205 214 242 193 222 242 263 280 259 315 80 170 81 50 109 109 122 127 148 162 185 184 191 188 187 191 194 192 192 196 193 193 197 200 219 204 200 189 203 208 190
285 204 159 177 211 233 275 221 222 239 281 325 122 226 101 84 60 109 132 124 127 138 158 173 190 194 194 188 192 195 191 191 199 196 191 196 199 203 209 196 194 219 186 192
273 248 150 159 208 196 195 237 252 282 342 314 244 98 103 112 84 83 101 126 139 148 170 161 176 199 194 202 197 195 192 191 198 200 188 196 199 199 204 204 197 217 188 188
243 283 161 191 192 232 208 217 227 215 206 227 316 103 102 103 102 81 89 58 65 38 133 156 169 178 213 200 210 197 196 199 203 197 185 193 195 196 195 206 197 199 187 191
223 244 143 157 172 207 240 230 254 237 252 104 283 108 128 113 92 69 73 102 96 118 137 167 155 166 199 203 212 214 195 208 201 201 195 192 193 195 197 192 197 191 184 189
303 273 66 254 179 161 211 195 260 287 214 176 184 132 125 111 110 100 87 86 92 83 49 49 189 155 213 212 200 216 202 210 210 197 201 190 188 188 192 183 178 187 169 178
249 269 110 49 74 34 328 185 199 269 281 51 20 116 112 103 97 94 96 91 91 75 59 45 26 31 226 213 200 217 215 216 204 206 199 192 178 181 186 184 174 177 163 171
239 280 260 166 199 265 205 245 252 228 276 278 186 107 119 120 120 109 108 105 97 81 60 35 17 17 355 223 213 221 222 211 216 212 207 196 178 182 181 169 178 168 170 168
232 226 204 246 136 260 247 193 215 204 206 245 232 124 134 140 134 124 119 105 85 66 55 20 337 338 15 62 215 224 221 215 214 201 242 256 233 196 201 180 170 167 159 157
219 238 211 104 257 229 91 14 29 277 194 273 137 100 101 122 131 124 108 103 88 64 33 355 322 324 347 357 322 226 228 209 173 165 84 332 244 202 198 190 178 163 167 166
246 233 232 234 226 174 164 166 206 219 254 210 264 104 125 136 140 160 117 107 88 66 24 348 323 330 329 323 313 284 246 211 173 196 175 199 210 194 210 197 183 168 166 166
257 257 265 212 280 171 261 146 131 4 262 193 201 148 154 161 248 88 105 115 105 78 17 345 354 316 344 320 319 292 270 207 218 216 199 205 216 219 193 189 180 170 170 173
234 259 246 244 229 272 33 108 127 214 22 53 169 194 169 242 65 104 114 81 65 45 349 338 3 7 70 317 316 303 294 282 245 211 208 200 199 202 186 193 179 175 179 163
254 209 237 253 265 264 349 181 241 54 44 334 282 41 149 114 126 93 83 25 347 343 341 346 343 348 321 219 278 288 299 311 296 267 264 214 202 180 187 175 161 168 150 156
254 301 308 341 67 121 343 34 25 355 43 298 134 162 172 192 171 144 216 298 313 326 332 324 327 323 315 13 346 309 310 306 301 278 238 191 173 172 166 176 165 161 157 168
192 322 274 283 289 30 340 71 352 27 320 209 203 183 191 208 169 248 263 293 329 324 321 326 328 326 330 327 311 287 293 293 279 269 226 209 173 184 181 178 180 172 174 188
41 170 228 265 247 213 143 39 43 236 260 242 206 235 222 250 257 262 278 295 307 327 325 329 321 313 311 298 292 293 299 298 268 262 201 180 181 184 181 191 191 186 194 192
186 227 236 46 38 357 85 60 336 300 267 272 281 257 252 261 277 292 294 306 328 322 324 306 307 304 307 304 295 290 282 275 264 241 182 185 182 187 192 191 161 43 343 194